Home   Weather   Linz   Past weeks

Flag for Austria Past Weather in Linz, Upper Austria, Austria — Yesterday and Last 2 Weeks

Now
27 °F

Sleet. Overcast.


Feels Like: 23 °F
Forecast: 26 / 43 °F
Wind: 3 mph from West

Location: Linz / Hoersching-Flughafen

Current Time: Dec 8, 2016 at 3:19:43 am

Latest Report: Dec 8, 2016 at 2:50 am


Visibility: 1 mi

Pressure: 30.63 "Hg

Humidity: 100%

Dew Point: 27 °F

Location of LinzLocation

Past Weather in Linz — Graph

°F

Linz Temperature Yesterday

Maximum temperature yesterday: 28 °F (at 12:20 am)
Minimum temperature yesterday: 27 °F (at 1:50 am)
Average temperature yesterday: 27 °F

High & Low Weather Summary for the Past Weeks

 TemperatureHumidityPressure
High46 °F (Nov 23, 12:50 pm)100% (Nov 23, 1:20 am)30.63 "Hg (Nov 23, 1:20 am)
Low19 °F (Nov 30, 3:50 am)44% (Nov 28, 12:50 pm)29.98 "Hg (Nov 27, 3:50 am)
Average34 °F85%30.26 "Hg
* Reported Nov 23 1:20 am — Dec 8 1:50 am, Linz, Weather by CustomWeather, © 2016

Note: Actual official high and low records may vary slightly from our data, if they occured in-between our weather recording intervals... More about our weather records

Advertising

Linz Weather History for the Previous 24 Hours

Scroll right to see more
 ConditionsComfort  
Time TempWeatherWind HumidityBarometerVisibility
1:50 am
Thu, Dec 8
27 °FLight freezing rain. Passing clouds.5 mph100%30.63 "Hg1 mi
1:20 am27 °FLight freezing rain. Passing clouds.3 mph100%30.63 "Hg2 mi
12:50 am27 °FLight freezing rain. Passing clouds.3 mph100%30.63 "Hg2 mi
12:20 am27 °FLight freezing rain. Passing clouds.5 mph100%30.63 "Hg2 mi
11:50 pm
Wed, Dec 7
27 °FLight freezing rain. Passing clouds.5 mph100%30.63 "Hg2 mi
11:20 pm27 °FLight freezing rain. Passing clouds.6 mph100%30.63 "Hg2 mi
10:50 pm28 °FLight freezing rain. Passing clouds.3 mph93%30.63 "Hg3 mi
10:20 pm28 °FLight freezing rain. Passing clouds.3 mph93%30.63 "Hg2 mi
9:50 pm28 °FLight freezing rain. Passing clouds.2 mph93%30.63 "Hg2 mi
9:20 pm28 °FChilly.2 mph100%30.60 "Hg1 mi
8:50 pm28 °FLight freezing rain. Passing clouds.2 mph100%30.60 "Hg2 mi
8:20 pm28 °FLight freezing rain. Partly cloudy.1 mph100%30.60 "Hg1 mi
7:50 pm28 °FSleet. Overcast.2 mph100%30.60 "Hg1 mi
7:20 pm28 °FLight freezing rain. Partly cloudy.2 mph93%30.60 "Hg1 mi
6:50 pm28 °FLight freezing rain. Passing clouds.1 mph93%30.60 "Hg2 mi
6:20 pm28 °FChilly.1 mph100%30.60 "Hg1 mi
5:50 pm28 °FLight freezing rain. Passing clouds.3 mph93%30.60 "Hg1 mi
5:20 pm28 °FLight freezing rain. Ice fog.3 mph93%30.60 "Hg1 mi
4:50 pm28 °FLight freezing rain. Passing clouds.1 mph93%30.60 "Hg1 mi
4:20 pm28 °FLight freezing rain. Passing clouds.3 mph93%30.60 "Hg1 mi
3:50 pm28 °FLight freezing rain. Partly sunny.2 mph93%30.60 "Hg1 mi
3:20 pm28 °FLight freezing rain. Partly sunny.5 mph93%30.60 "Hg1 mi
2:50 pm28 °FLight freezing rain. Low clouds.3 mph93%30.60 "Hg1 mi
2:20 pm28 °FLight freezing rain. Low clouds.6 mph93%30.60 "Hg1 mi
1:50 pm27 °FLight freezing rain. Low clouds.3 mph100%30.60 "Hg1 mi
1:20 pm27 °FLight freezing rain. Partly sunny.5 mph100%30.60 "Hg2 mi
12:50 pm27 °FLight freezing rain. Partly sunny.6 mph100%30.60 "Hg1 mi
12:20 pm27 °FLight freezing rain. Partly sunny.6 mph100%30.60 "Hg1 mi
11:50 am27 °FLight freezing rain. Partly sunny.6 mph100%30.63 "Hg1 mi
11:20 am27 °FLight freezing rain. Partly sunny.5 mph100%30.63 "Hg1 mi
10:50 am27 °FLight freezing rain. Low clouds.5 mph100%30.63 "Hg1 mi
10:20 am27 °FLight freezing rain. Low clouds.6 mph93%30.63 "Hg1 mi
9:50 am27 °FLight freezing rain. Low clouds.7 mph93%30.63 "Hg1 mi
9:20 am27 °FLight snow. Ice fog.3 mph93%30.63 "Hg1 mi
8:50 am27 °FLight freezing rain. Low clouds.6 mph93%30.63 "Hg1 mi
8:20 am27 °FLight freezing rain. More clouds than sun.6 mph93%30.63 "Hg2 mi
7:50 am27 °FLight freezing rain. Partly sunny.6 mph93%30.60 "Hg2 mi
7:20 am27 °FLight freezing rain. Low clouds.6 mph93%30.60 "Hg3 mi
6:50 am27 °FLight freezing rain. Low clouds.3 mph93%30.60 "Hg3 mi
6:20 am27 °FLight freezing rain. Low clouds.1 mph93%30.63 "Hg3 mi
5:50 am27 °FLight freezing rain. Passing clouds.3 mph93%30.60 "Hg3 mi
5:20 am27 °FLow clouds.2 mph93%30.60 "Hg4 mi
4:50 am27 °FLight freezing rain. Passing clouds.1 mph93%30.60 "Hg4 mi
4:20 am27 °FLight freezing rain. Low clouds.3 mph93%30.60 "Hg4 mi
3:50 am27 °FPassing clouds.5 mph93%30.60 "Hg4 mi
3:20 am27 °FPassing clouds.1 mph93%30.60 "Hg4 mi
Weather by CustomWeather, © 2016

See weather overviewHow to use our weather pages